User: anonymous   Login
Location: Monreal
(44.6700°N, 73.7400°W)
Time: 05:32:45
(UTC-04:00)
Language:

CUTE-I - Orbit

View from above orbital plane
View from above orbital plane
View from above satellite
View from above satellite

Ground track
Ground track

The orbit data is extracted from the following two-line orbital elements,

1 27844U 03031E   17289.93974894 +.00000093 +00000-0 +61750-4 0  9997
2 27844 098.6906 297.1784 0009773 002.0830 358.0387 14.22067203741588
Epoch (UTC): 16 October 2017 22:33:14
Eccentricity: 0.0009773
inclination: 98.6906°
perigee height: 811 km
apogee height: 825 km
right ascension of ascending node: 297.1784°
argument of perigee: 2.0830°
revolutions per day: 14.22067203
mean anomaly at epoch: 358.0387°
orbit number at epoch: 74158

The dashed part of the orbit path shows where the satellite is in the earth's shadow,  

DLR